Simultaneous Nadir Overpasses (SNOs) Predictions

Prediction of SNOs between NOAA-19 and TERRA Satellite Orbit:

Table of predicted SNOs for the next 14.0 days since TLE Epoch: 8/24/2012
Index Date (NOAA-19) Time (NOAA-19) NOAA-19 Lat,Lon Date (TERRA) Time (TERRA) TERRA Lat,Lon Distance(km) Time Diff (sec)
1 08/26/2012 09:55:20 69.67, 29.69 08/26/2012 09:56:30 69.55, 30.91 49.22 70
2 08/26/2012 10:46:04 -69.03,-162.11 08/26/2012 10:46:07 -69.06,-162.11 2.80 3
3 08/26/2012 11:36:56 68.13, 6.31 08/26/2012 11:35:48 68.16, 4.44 77.70 68
4 08/28/2012 14:39:48 69.13, -40.67 08/28/2012 14:40:56 69.12, -40.74 2.80 68
5 08/28/2012 15:30:42 -69.02, 126.75 08/28/2012 15:30:26 -69.02, 126.76 0.54 16
6 08/30/2012 19:24:26 69.11,-111.80 08/30/2012 19:25:14 69.13,-111.81 2.19 48
7 08/30/2012 20:15:19 -68.95, 55.69 08/30/2012 20:14:45 -68.97, 55.63 3.45 34
8 09/02/2012 00:09:04 69.09, 177.08 09/02/2012 00:09:33 69.07, 177.04 2.47 29
9 09/02/2012 00:59:58 -68.99, -15.51 09/02/2012 00:59:03 -68.97, -15.45 2.93 55
10 09/04/2012 04:53:42 69.07, 105.95 09/04/2012 04:53:51 69.06, 105.95 1.07 9
11 09/04/2012 05:44:35 -68.91, -86.57 09/04/2012 05:43:22 -68.91, -86.61 1.70 73
12 09/06/2012 08:47:24 -69.74,-133.39 09/06/2012 08:48:34 -69.61,-132.05 53.96 70
13 09/06/2012 09:38:20 69.05, 34.82 09/06/2012 09:38:09 69.04, 34.85 1.73 11




NCC Satellite Simultaneous Nadir Overpasses (SNOs) Prediction Service
